Location: Palmerston North
(40.3500°S, 175.6170°E)
Time: 14:04:59
(UTC+13:00)

Cosmos 1733 Rocket - Pass Details

Date: 24 January 2019
Orbit: 604 x 627 km, 82.5° (Epoch: 19 February)

Event Time Altitude Azimuth Distance (km) Brightness Sun altitude
Rises 22:51:19 0° 177° (S) 2,927 7.2 -20.0°
Reaches altitude 10° 22:53:51 10° 164° (SSE) 2,008 6.1 -20.3°
Maximum altitude 22:57:41 28° 105° (ESE) 1,180 4.2 -20.7°
Enters shadow 22:57:44 28° 104° (ESE) 1,180 4.2 -20.7°
